Regional Weather Roundup
Issued by NWS Austin/San Antonio, TX

Current Version | Previous Version | Text Only | Print | Product List | Glossary On
Versions: 1 2 3 4 5 6 7 8 9 10 11 12 13 14 15 16 17 18 19 20 21 22 23 24 25 26 27 28 29 30 31 32 33 34 35 36 37 38 39 40 41 42 43 44 45 46 47 48 49 50
000
ASUS44 KEWX 261611
RWREWX
SOUTH TEXAS REGIONAL WEATHER ROUNDUP
NATIONAL WEATHER SERVICE AUSTIN/SAN ANTONIO TX
1000 AM CST TUE JAN 26 2021

NOTE: "FAIR" INDICATED FEW OR NO CLOUDS BELOW 12,000 FEET WITH NO
SIGNIFICANT WEATHER AND/OR OBSTRUCTIONS TO VISIBILITY.

* - THESE STATIONS ARE NOT NWS OR FAA STATIONS...AND ARE NOT SUBJECT
    TO NWS AND FAA QUALITY CONTROL.

TXZ171-172-183>190-261700-
TEXAS HILL COUNTRY AND EDWARDS PLATEAU

CITY           SKY/WX    TMP DP  RH WIND       PRES   REMARKS
JUNCTION       SUNNY     47  35  63 CALM      29.93R
*LLANO         SUNNY     52  37  58 CALM      29.92R
BURNET           N/A     63  31  30 NE6       29.93R
*HORSESHOE BAY SUNNY     55  36  47 CALM      29.93R
*LAGO VISTA    MOSUNNY   62  33  33 NE7       29.91S
*KERRVILLE     SUNNY     51  37  59 NW3       29.93R
*FREDERICKSBRG SUNNY     52  37  56 CALM      29.93R
*ROCKSPRINGS   SUNNY     61  28  29 S16       29.96R
*BOERNE        SUNNY     59  30  33 CALM        N/A
*CASTROVILLE   SUNNY     63  38  39 CALM      29.92R
HONDO          SUNNY     61  33  35 NE3       29.91R
*UVALDE        SUNNY     62  33  32 E3        29.93R
DEL RIO        SUNNY     61  41  47 SE7       29.89R
*LAUGHLIN AFB  SUNNY     61  37  41 SE8       29.90R
*SPOFFORD      SUNNY     62  38  41 SE7       29.85R
*EAGLE PASS    NOT AVBL
CARRIZO SPRGS  MOSUNNY   55  39  54 CALM      29.90R
*FAITH RANCH   SUNNY     66  43  42 CALM      29.92R
$$

TXZ173-191>194-202-209-217>225-228-261700-
CENTRAL AND SOUTH CENTRAL TEXAS

CITY           SKY/WX    TMP DP  RH WIND       PRES   REMARKS
GEORGETOWN     PTSUNNY   57  34  41 N10       29.94R
*TAYLOR        PTSUNNY   54  39  58 N12       29.93R
AUSTIN/BERGSTM PTSUNNY   57  40  52 N3        29.91R
AUSTIN/MABRY   PTSUNNY   59  38  45 CALM      29.92R
*PFLUGERVILLE  PTSUNNY   61  36  39 NE10      29.93R
SAN MARCOS     PTSUNNY   62  37  39 N6        29.92R
NEW BRAUNFELS  MOSUNNY   64  33  31 NE7       29.90R
*RANDOLPH AFB  MOSUNNY   61  33  34 NE5       29.90R
*SEGUIN        PTSUNNY   60  36  40 E6        29.95R
SAN ANTONIO    MOSUNNY   63  32  31 E6        29.91R
STINSON FIELD  MOSUNNY   60  35  39 NE5       29.89R
*KELLY FIELD   MOSUNNY   62  35  36 NE3       29.88R
*PLEASANTON    SUNNY     64  40  42 NE3       29.91R
*KENEDY        SUNNY     66  43  43 E5        29.90R
*LA GRANGE     MOSUNNY   62  43  51 N3        29.89R
*GIDDINGS      SUNNY     60  35  39 N8        29.92R
*GONZALES      SUNNY     63  44  49 CALM      29.90R
$$

TXZ163>164-176>182-195>201-210>213-226-227-235-261700-
SOUTHEAST TEXAS

CITY           SKY/WX    TMP DP  RH WIND       PRES   REMARKS
COLLEGE STN    SUNNY     62  35  36 N9        29.92R
*BRYAN         SUNNY     60  37  43 N9        29.93R
*CALDWELL      SUNNY     60  37  42 N8        29.92R
*CROCKETT      NOT AVBL
*BRENHAM       SUNNY     62  42  47 NE3       29.92R
HUNTSVILLE     CLOUDY    58  39  49 NW6       29.92R
CONROE         CLOUDY    61  37  41 N5        29.92R
HOUSTON BUSH   CLOUDY    65  43  44 E8        29.91R
HOUSTON HOBBY  PTSUNNY   73  39  29 E12       29.88R
*HOUSTON SW AP MOSUNNY   72  45  37 E7        29.89S
PEARLAND       PTSUNNY   71  46  40 NE7       29.89R
HOUSTON HOOKS  CLOUDY    64  43  46 NE3       29.91R
ELLINGTON FLD  PTSUNNY   72  41  33 NE10      29.88R
SUGAR LAND     PTSUNNY   68  45  43 N7        29.89R
*HOUSTON EXEC  PTSUNNY   66  43  42 E7        29.91S
*CLEVELAND MUN CLOUDY    60  46  60 CALM      29.93R
*WHARTON       MOSUNNY   71  39  31 NE8       29.89R
*COLUMBUS      FAIR      65  42  43 NE3       29.90R
*EAGLE LAKE    SUNNY     67  42  40 MISG      29.89R
$$

TXZ214>216-236>238-261700-
THE UPPER TEXAS COAST

CITY           SKY/WX    TMP DP  RH WIND       PRES   REMARKS
*ORANGE        CLOUDY    69  53  56 NE6       29.91R
PORT ARTHUR    CLOUDY    71  47  42 NE10      29.88R
GALVESTON      CLOUDY    70  49  47 E13       29.89R
ANGLETON       PTSUNNY   73  47  39 E14G20    29.87R
*BAY CITY      CLOUDY    71  45  39 NE9       29.87R
PALACIOS       MOSUNNY   74  47  38 E17       29.86R
$$

TXZ229>234-239>247-261700-
TEXAS COASTAL BEND AND RIO GRANDE PLAINS

CITY           SKY/WX    TMP DP  RH WIND       PRES   REMARKS
VICTORIA       MOSUNNY   70  44  39 E13       29.87R
*BEEVILLE      MOSUNNY   73  46  37 E12       29.86S
ROCKPORT       MOSUNNY   72  53  51 E13       29.84S
*PORT ARANSAS  MOSUNNY  N/A N/A N/A E14       29.87R
*PORT LAVACA   MOSUNNY   74  45  34 E10       29.87R
*INGLESIDE     MOSUNNY   73  48  41 SE20G25   29.84R
CORPUS CHRISTI PTSUNNY   71  49  45 E21       29.84R
CORPUS NAS     PTSUNNY   74  51  44 E22       29.84R
*ROBSTOWN      MOSUNNY   75  43  31 E16G22    29.87R
ALICE          MOSUNNY   71  47  42 E7        29.86R
KINGSVILLE NAS PTSUNNY   75  46  35 E12       29.86R
COTULLA        MOSUNNY   68  41  37 NE3       29.90R
LAREDO         MOSUNNY   71  43  36 CALM      29.89R
$$

TXZ248>255-261700-
DEEP SOUTH TEXAS

CITY           SKY/WX    TMP DP  RH WIND       PRES   REMARKS
BROWNSVILLE    CLOUDY    72  70  94 CALM      29.84R FOG
PORT ISABEL    FOG       70  70 100 CALM      29.83R VSB 1/4
HARLINGEN      CLOUDY    70  67  90 VRB3      29.84R
*HEBBRONVILLE  SUNNY     67  30  25 E6        29.89R
MCALLEN        MOSUNNY   71  57  61 NW5       29.86R
*WESLACO       CLOUDY    69  60  73 CALM      29.85R
FALFURRIAS     PTSUNNY   70  52  52 E8        29.86R
EDINBURG       CLOUDY    70  58  66 CALM      29.86R
*ZAPATA        SUNNY     73  43  33 NW5       29.90R
$$

TXZ213>215-236>238-242>244-246-247-251-254-255-261700-
CMAN STATIONS

STATION/POSITION TIME  TEMP    WIND        PRES    WAVE
                       AIR SEA DIR/SP/G            HT/PER
                 (UTC) (F)     (DEG/KT/KT) (MB)    (FT/S)
SEA RIM ST PARK  1500   65      60/  5/  7 1011.4
NORTH JETTY/GLS  1518   62 60   80/  8/ 11 1010.2
EAGLE POINT      1530   66 63   50/  3/  5 1011.2
MORGANS POINT    1530   67 61   40/  3/  5 1011.9
MISSION/ARANSAS  1445   67      50/  7     1011.0
PORT O`CONNOR    1518   66 68   80/ 14/ 17 1010.4
PORT ARANSAS     1500   65 62   40/ 13/ 15 1010.1
MALAQUITE BEACH  1530   67      30/ 15/ 17   N/A
BAFFIN BAY       1530   69 69   40/ 16/ 19 1009.3
PORT ISABEL      1530   68 67  100/  3/  4 1011.7
$$



USA.gov is the U.S. government's official web portal to all federal, state and local government web resources and services.